{"data":{"norad_id":67302,"intl_designator":"2025-315A","name":"SHIJIAN-29A (SJ-29A)","alt_names":[],"object_type":"PAYLOAD","status":"ACTIVE","operator":null,"country":"PRC","launch_date":"2025-12-30","launch_site_code":"WSC","launch_vehicle":null,"mission":null,"orbit_class":"UNKNOWN","rcs_meters":null,"size_class":null,"mass_kg":null,"dimensions":null,"purposes":["comms"],"wikipedia_slug":null,"has_3d_model":false,"image_url":null,"decayed_at":null,"tle_current":{"epoch":"2026-09-19T20:39:48.928608Z","epoch_age_seconds":73432,"freshness":"FRESH","line1":"1 67302U 25315A   26262.86098297 -.00000074  00000+0  00000+0 0  9991","line2":"2 67302   3.6313  92.8181 0006188  73.0407 216.3358  1.00269809  2565","mean_motion":1.00269809,"eccentricity":0.0006188,"inclination_deg":3.6313,"raan_deg":92.8181,"arg_perigee_deg":73.0407,"mean_anomaly_deg":216.3358,"bstar":0,"rev_number":256,"period_min":1436.1252049458,"perigee_km":35761.057035895,"apogee_km":35813.240793743,"semimajor_km":42165.285914819,"source":"CELESTRAK","updated_at":"2026-09-20T09:00:35.348178Z"}}}